Weather Roundup
Issued by NWS

Home | Current Version | Previous Version | Text Only | Print | Product List | Glossary On
Versions: 1 2 3 4 5 6 7 8 9 10 11 12 13 14 15 16 17 18 19 20 21 22 23 24 25 26 27 28 29 30 31 32 33 34 35 36 37 38 39 40 41 42 43 44 45 46 47 48 49 50
283
NZUS93 KARX 200410
HRRWXR

CURRENT HOURLY OBSERVATIONS ACROSS
MUCH OF THE UPPER MISSISSIPPI VALLEY
NATIONAL WEATHER SERVICE LA CROSSE WI
1000 PM CST THU JAN 19 2017


...SOUTHEAST MINNESOTA...


CITY           SKY/WX    TMP DP  RH WIND       PRES   REMARKS
ROCHESTER      CLOUDY    33  33 100 SE9       29.69S FOG     WCI  25
ROCHESTER/MAYO CLOUDY    35  35 100 SE6       29.70S WCI  30
WINONA         CLOUDY    34  34 100 S3        29.74F FOG
AUSTIN         RAIN      34  32  93 SE5       29.68F VSB 1/2 WCI  30
ALBERT LEA     FOG       36  36 100 SE6       29.67F VSB 1/4 WCI  31
DODGE CENTER   CLOUDY    34  34 100 CALM      29.68F FOG
PRESTON        LGT RAIN  33  32  96 SE3       29.70S
OWATONNA       CLOUDY    36  34  93 SE8       29.68S FOG     WCI  29
FARIBAULT        N/A     36  34  93 E3        29.69S FOG
$$

...ELSEWHERE IN MINNESOTA...


CITY           SKY/WX    TMP DP  RH WIND       PRES   REMARKS
MINNEAPOLIS    CLOUDY    37  31  78 E7        29.69F WCI  32
INTNL FALLS    CLEAR     37  34  89 VRB5      29.61F FOG     WCI  33
DULUTH         CLOUDY    36  33  89 S8        29.70F WCI  30
RED WING       CLOUDY    37  34  87 SE7       29.71F WCI  32
REDWOOD FALLS  CLOUDY    35  33  92 SE3       29.64F FOG
MANKATO        MIX PCPN  35  34  96 S5        29.67F FOG     WCI  31
WORTHINGTON    FOG       34  34 100 SE9       29.63F VSB 1/2 WCI  26
FAIRMONT       FOG       34  34 100 S7        29.66S VSB 1/4 WCI  28
$$

...SOUTHWEST WISCONSIN...


CITY           SKY/WX    TMP DP  RH WIND       PRES   REMARKS
LA CROSSE      LGT RAIN  39  36  89 E3        29.74F FOG
PRAIRIE DU CHI CLOUDY    36  35  96 E6        29.72F FOG     WCI  31
BOSCOBEL       LGT RAIN  36  34  92 NE5       29.74F FOG     WCI  32
LONE ROCK      RAIN      35  34  96 E9        29.76F FOG     WCI  28
PLATTEVILLE    CLOUDY    36  36 100 E13       29.71F WCI  27
FORT MC COY    RAIN      34  34 100 E3        29.76F
CAMP DOUGLAS   LGT RAIN  34  33  97 E5        29.77F FOG     WCI  30
MAUSTON-NEW LI RAIN      34  34  99 CALM      29.77F
VIROQUA        CLOUDY    34  34 100 E6        29.72F WCI  29
WIS DELLS      RAIN      33  33  99 E6        29.77S VSB 3/4 WCI  28
$$

...ELSEWHERE IN WISCONSIN...


CITY           SKY/WX    TMP DP  RH WIND       PRES   REMARKS
MILWAUKEE      LGT RAIN  38  36  92 E7        29.80F VSB 1   WCI  33
MADISON        LGT RAIN  35  34  96 E5        29.79F FOG     WCI  31
GREEN BAY      CLOUDY    34  33  96 E3        29.82F FOG
EAU CLAIRE     CLOUDY    36  33  89 SE7       29.74S WCI  30
BLACK RVR FLS  LGT RAIN  36  36 100 E5        29.76F WCI  32
MEDFORD        CLOUDY    31  31  99 SE3       29.75S FOG
WAUSAU         CLOUDY    31  30  96 SE5       29.76F FOG     WCI  26
WIS RAPIDS     CLOUDY    34  33  96 SE3       29.80R
MARSHFIELD     CLOUDY    32  31  96 SE5       29.76S FOG     WCI  27
RICE LAKE      CLOUDY    35  32  89 CALM      29.74F
$$

...NORTHEAST IOWA...


CITY           SKY/WX    TMP DP  RH WIND       PRES   REMARKS
WATERLOO       FOG       36  35  96 E3        29.68F VSB 1/2
DUBUQUE        CLOUDY    36  35  96 E10       29.69F FOG     WCI  28
DECORAH        CLOUDY    36  36 100 SE7       29.69F FOG     WCI  30
MASON CITY     FOG       34  33  96 SE9       29.67F VSB 1/2 WCI  27
CHARLES CITY   MIX PCPN  36  36 100 SE8       29.69F VSB 1/2 WCI  29
OELWEIN        MIX PCPN  36  36 100 E10       29.69F VSB 3/4 WCI  28
$$

...ELSEWHERE IN IOWA...


CITY           SKY/WX    TMP DP  RH WIND       PRES   REMARKS
DES MOINES     DRZL/FOG  38  37  97 E3        29.67S VSB 1/4
IOWA CITY      CLOUDY    38  37  97 E5        29.69F FOG     WCI  34
FORT DODGE     CLOUDY    36  34  93 CALM      29.66F
MARSHALLTOWN   FOG       36  36 100 CALM      29.66F VSB 1/4
CEDAR RAPIDS   CLOUDY    36  36 100 E8        29.67F FOG     WCI  30
$$

...NORTHERN ILLINOIS...


CITY           SKY/WX    TMP DP  RH WIND       PRES   REMARKS
CHICAGO-OHARE  RAIN      38  37  97 E9        29.76F FOG     WCI  31
CHICAGO-MIDWAY RAIN      38  37  97 E6        29.76F FOG     WCI  33
MOLINE         CLOUDY    37  36  96 E9        29.69F FOG     WCI  30
ROCKFORD       LGT RAIN  38  36  92 NE8       29.77F FOG     WCI  32
PEORIA         CLOUDY    41  40  96 E7        29.69F FOG
$$

NOTE: "FAIR" INDICATES FEW OR NO CLOUDS BELOW 12,000 FEET WITH NO
SIGNIFICANT WEATHER AND/OR OBSTRUCTIONS TO VISIBILITY. WIND
SPEEDS ARE IN MILES-PER-HOUR.




USA.gov is the U.S. government's official web portal to all federal, state and local government web resources and services.